This demonstration page uses our WeatherBlox Daily Observations layout. Learn more.

Left ArrowRight Arrow

39.29038, -76.61219

Hourly Observations for August 8, 2020

Temp ( °F °C ) Dew Point ( °F °C ) Humidity (%) Winds ( mph kmh ) Pressure ( in mb ) Visibility ( mi km ) Precip ( " mm )
12:54 am 00:54 Mostly Cloudy 71 21.7 68 20 90 90 Calm 30.11 1020 10 16 0.00 0.00
1:54 am 01:54 Mostly Cloudy 71 21.7 68 20 90 90 NNE 3 6 30.10 1019 10 16 0.00 0.00
2:54 am 02:54 Mostly Cloudy 71 21.7 69 20.6 94 94 Calm 30.09 1019 10 16 0.00 0.00
3:54 am 03:54 Mostly Cloudy 72 22.2 69 20.6 91 91 N 5 7 30.10 1019 10 16 0.00 0.00
4:47 am 04:47 Mostly Cloudy 71 21.7 68 20 90 90 Calm 30.10 1019 10 16 0.00 0.00
4:54 am 04:54 Mostly Cloudy 71 21.7 68 20 90 90 Calm 30.11 1020 10 16 0.00 0.00
5:54 am 05:54 Mostly Cloudy 72 22.2 69 20.6 91 91 NE 8 13 30.12 1020 10 16 0.00 0.00
6:54 am 06:54 Mostly Cloudy 72 22.2 69 20.6 91 91 NNE 5 7 30.14 1021 10 16 0.00 0.00
7:54 am 07:54 Mostly Cloudy 73 22.8 68 20 84 84 NNE 7 11 30.15 1021 10 16 0.00 0.00
8:41 am 08:41 Partly Cloudy 75 23.9 68 20 79 79 NE 6 9 30.15 1021 10 16 0.00 0.00
8:54 am 08:54 Partly Cloudy 76 24.4 68 20 77 77 ENE 6 9 30.16 1021 10 16 0.00 0.00
9:35 am 09:35 Mostly Cloudy 78 25.6 69 20.6 74 74 VRB 5 7 30.15 1021 10 16 0.00 0.00
9:54 am 09:54 Partly Cloudy 78 25.6 67 19.4 69 69 NE 5 7 30.16 1021 10 16 0.00 0.00
10:54 am 10:54 Mostly Cloudy 80 26.7 68 20 67 67 NE 6 9 30.15 1021 10 16 0.00 0.00
11:54 am 11:54 Cloudy 80 26.7 68 20 67 67 Calm 30.15 1021 10 16 0.00 0.00
12:24 pm 12:24 Cloudy 80 26.7 68 20 67 67 Calm 30.14 1021 10 16 0.00 0.00
12:54 pm 12:54 Cloudy 81 27.2 68 20 65 65 Calm 30.15 1021 10 16 0.00 0.00
1:54 pm 13:54 Cloudy 83 28.3 68 20 61 61 Calm 30.14 1021 10 16 0.00 0.00
2:54 pm 14:54 Mostly Cloudy 83 28.3 68 20 61 61 SSW 3 6 30.13 1020 10 16 0.00 0.00
3:54 pm 15:54 Partly Cloudy 85 29.4 68 20 57 57 SW 6 9 30.11 1020 10 16 0.00 0.00
4:54 pm 16:54 Partly Cloudy 86 30 68 20 55 55 WSW 6 9 30.10 1019 10 16 0.00 0.00
5:54 pm 17:54 Partly Cloudy 86 30 69 20.6 57 57 Calm 30.09 1019 10 16 0.00 0.00
6:54 pm 18:54 Mostly Sunny 84 28.9 69 20.6 61 61 S 5 7 30.08 1019 10 16 0.00 0.00
7:54 pm 19:54 Mostly Sunny 81 27.2 69 20.6 67 67 SSE 5 7 30.10 1019 10 16 0.00 0.00
8:54 pm 20:54 Mostly Clear 79 26.1 70 21.1 74 74 S 5 7 30.12 1020 10 16 0.00 0.00
9:54 pm 21:54 Mostly Clear 79 26.1 69 20.6 72 72 SSW 5 7 30.14 1021 10 16 0.00 0.00
10:54 pm 22:54 Clear 77 25 70 21.1 79 79 Calm 30.13 1020 10 16 0.00 0.00
11:54 pm 23:54 Mostly Clear 74 23.3 69 20.6 85 85 Calm 30.13 1020 10 16 0.00 0.00

Powered by AerisWeather